User: anonymous
Location: Del Oro Observatory
(38.3044°N, 104.8119°W)
Time: 15:23:44
(UTC-06:00)
Language:

Cosmos 1602 Rocket - Orbit

View from above orbital plane
View from above orbital plane
View from above satellite
View from above satellite

Ground track
Ground track

The orbit data is extracted from the following two-line orbital elements,

1 15332U 84105B   14203.18081346  .00000135  00000-0  13795-4 0  7012
2 15332 082.5353 099.5477 0019858 266.8617 204.4039 14.82744548609329
Epoch (UTC): 22 July 2014 04:20:22
Eccentricity: 0.0019858
inclination: 82.5353°
perigee height: 607 km
apogee height: 634 km
right ascension of ascending node: 99.5477°
argument of perigee: 266.8617°
revolutions per day: 14.82744548
mean anomaly at epoch: 204.4039°
orbit number at epoch: 60932

The dashed part of the orbit path shows where the satellite is in the earth's shadow,  

DLR